Current weather by "City, St" or "zip code"  
 

Current Conditions: Janesville-Rock County, WI

Overcast


41.0 F

Last Updated on Oct 23 2020, 8:45 pm CDT
Humidity: 70%
Wind Speed: NW 11.5 mph
Barometer 30.23 in
Dewpoint: 32.0 F
Visibility: 10.00 mi
Precip: --
Heat Index: NA
Wind Chill: 34 F
Current conditions at:

Janesville-Rock County, WI (KJVL)

Lat: 42.62135 Lon: 89.04186

Local Radar Image active severe weather and emergency alerts image image weather storm and storm spotter reports image weather observation monitoring service image
Local
Radar
Active
Alerts
Storm Reports Obs
Monitoring

Sign-up For Email & Text Message Weather Alert Notification Services



Advertise Here

Observation History for Janesville-Rock County, WI


Time Wind
(mph)
Vis
(mi)
Weather Precip (in) Temperature (F) Relative
Humidity
Wind
Chill
(F)
Heat
Index
(F)
Pressure
Air Dwpt altimeter
(in)
sea level
(mb)
Rmks
8:45 pm CDT NW 11.5 10.00 Overcast -- 41.0 32.0 70% 34 NA 30.23 M
7:45 pm CDT NW 8.1 10.00 Overcast -- 43.0 33.8 71% 38 NA 30.22 M
6:45 pm CDT NW 12.7 G 20.7 10.00 Overcast -- 41.0 35.6 81% 34 NA 30.18 M
5:45 pm CDT NW 15.0 G 20.7 10.00 Overcast -- 43.0 35.6 76% 36 NA 30.13 M
4:45 pm CDT NW 15.0 G 20.7 10.00 Overcast -- 43.0 39.2 87% 36 NA 30.10 M
3:45 pm CDT NW 17.3 10.00 Overcast -- 45.0 42.8 93% 38 NA 30.08 M
2:45 pm CDT NW 17.3 10.00 Overcast -- 41.0 41.0 100% 32 NA 30.07 M
1:45 pm CDT NW 17.3 10.00 Overcast -- 43.0 42.8 100% 35 NA 30.05 M
12:45 pm CDT NW 12.7 10.00 Overcast -- 41.0 41.0 100% 34 NA 30.03 M
11:45 am CDT NW 13.8 3.00 Light Rain -- 41.0 41.0 100% 33 NA 30.01 M
10:45 am CDT NW 10.4 2.00 Rain Fog/Mist -- 41.0 41.0 100% 35 NA 30.00 M
9:45 am CDT N 12.7 8.00 Light Drizzle -- 41.0 41.0 100% 34 NA 29.95 M
8:45 am CDT N 13.8 G 21.9 6.00 Light Drizzle -- 41.0 41.0 100% 33 NA 29.93 M
7:45 am CDT NW 13.8 5.00 Light Rain -- 41.0 41.0 100% 33 NA 29.92 M
6:45 am CDT N 11.5 G 17.3 7.00 Overcast -- 41.0 41.0 100% 34 NA 29.91 M
5:45 am CDT N 11.5 7.00 Rain -- 43.0 42.8 100% 37 NA 29.87 M
4:55 am CDT N 6.9 10.00 Overcast -- 43.0 42.8 100% 39 NA 29.86 M
3:55 am CDT NW 11.5 4.00 Rain -- 45.0 44.6 100% 39 NA 29.85 M
2:55 am CDT NW 3.5 5.00 Light Rain -- 46.0 46.4 100% NA NA 29.84 M
2:35 am CDT N 8.1 3.00 Rain -- 46.0 46.4 100% 42 NA 29.84 M
1:55 am CDT E 4.6 3.00 Rain -- 46.0 46.4 100% 44 NA 29.82 M
12:55 am CDT N 6.9 1.75 Fog/Mist -- 48.0 48.2 100% 45 NA 29.82 M
12:35 am CDT N 5.8 1.75 Fog/Mist -- 48.0 48.2 100% 45 NA 29.82 M
11:55 pm CDT NE 4.6 5.00 Fog/Mist -- 50.0 50.0 100% 48 NA 29.81 M

Regional Weather Observation


Monroe Municipal Airport, WI (KEFT)

Overcast
38.0 F

Madison, Dane County Regional-Truax Field, WI (KMSN)

Mostly Cloudy
37.0 F

Middleton Muni - Morey Field, WI (KC29)

Overcast
39.0 F

Rockford, Greater Rockford Airport, IL (KRFD)

Overcast
42.0 F

Albertus Airport, IL (KFEP)

Overcast
39.0 F

Watertown, WI (KRYV)

Fair
35.0 F